Home   Weather   Denali   Past weeks
Flag for USA

Past Weather in Denali, Alaska, USA — Yesterday and Last 2 Weeks

Now
29 °F

Overcast.


Feels Like: 23 °F
Forecast: 42 / 26 °F
Wind: 5 mph from West

Location: Wainwright U. S. Army Airfield

Current Time: Apr 18, 2019 at 4:39:46 am

Latest Report: Apr 18, 2019 at 3:58 am


Visibility: 10 mi

Pressure: 29.51 "Hg

Humidity: 87%

Dew Point: 25 °F

Location of DenaliLocation

Past Weather in Denali — Graph

°F

Denali Temperature Yesterday

Maximum temperature yesterday: 33 °F (at 5:58 pm)
Minimum temperature yesterday: 26 °F (at 7:58 am)
Average temperature yesterday: 29 °F

High & Low Weather Summary for the Past Weeks

 TemperatureHumidityPressure
High53 °F (Apr 8, 6:58 pm)100% (Apr 9, 6:58 am)30.14 "Hg (Apr 9, 6:58 am)
Low12 °F (Apr 4, 6:58 am)24% (Apr 11, 2:58 pm)29.26 "Hg (Apr 7, 5:58 pm)
Average36 °F60%29.59 "Hg
* Reported Apr 3 3:58 am — Apr 18 3:28 am, Denali. Weather by CustomWeather, © 2019

Note: Actual official high and low records may vary slightly from our data, if they occured in-between our weather recording intervals... More about our weather records

Advertising

Denali Weather History for the Previous 24 Hours

Scroll right to see more
 ConditionsComfort  
Time TempWeatherWind HumidityBarometerVisibility
3:28 am
Thu, Apr 18
28 °FOvercast.7 mph86%29.51 "Hg9 mi
3:05 am28 °FLight snow. Overcast.6 mph86%29.52 "Hg9 mi
2:23 am30 °FOvercast.6 mph80%29.53 "Hg10 mi
1:58 am30 °FOvercast.5 mph80%29.54 "Hg10 mi
12:58 am30 °FOvercast.6 mph79%29.55 "Hg10 mi
11:58 pm
Wed, Apr 17
31 °FOvercast.6 mph76%29.56 "Hg10 mi
10:58 pm31 °FOvercast.7 mph76%29.58 "Hg10 mi
6:58 pm33 °FOvercast.7 mph74%29.61 "Hg9 mi
5:58 pm33 °FMostly cloudy.7 mph73%29.61 "Hg10 mi
4:58 pm32 °FMostly cloudy.8 mph74%29.62 "Hg9 mi
3:58 pm31 °FMostly cloudy.6 mph80%29.63 "Hg10 mi
2:58 pm30 °FOvercast.7 mph84%29.64 "Hg9 mi
1:58 pm29 °FOvercast.3 mph84%29.64 "Hg10 mi
12:58 pm28 °FOvercast.5 mph83%29.64 "Hg10 mi
11:58 am27 °FOvercast.5 mph86%29.63 "Hg8 mi
10:58 am26 °FOvercast.5 mph88%29.62 "Hg7 mi
9:58 am26 °FOvercast.5 mph88%29.60 "Hg7 mi
8:58 am26 °FIce fog.6 mph89%29.60 "Hg6 mi
8:31 am27 °FLow clouds.7 mph86%29.59 "Hg7 mi
7:58 am26 °FLow clouds.5 mph94%29.58 "Hg10 mi
6:58 am26 °FLow clouds.6 mph96%29.57 "Hg10 mi
6:13 am27 °FLight snow. Mostly cloudy.6 mph100%29.56 "Hg9 mi
5:58 am27 °FLight snow. Ice fog.No wind100%29.55 "Hg1 mi
5:33 am27 °FLight snow. Ice fog.5 mph100%29.55 "Hg1 mi
5:13 am28 °FLight snow. Ice fog.6 mph93%29.56 "Hg4 mi
4:58 am28 °FLight snow. Ice fog.6 mph94%29.55 "Hg4 mi
4:33 am28 °FIce fog.8 mph93%29.54 "Hg4 mi
Weather by CustomWeather, © 2019

See weather overview